Location: Krakow
(50.0830°N, 19.9170°E)
Time: 20:01:32
(UTC+01:00)

Altair - Pass Details

Date: 06 December 2023
Orbit: 1501 x 1682 km, 47.2° (Epoch: 03 March)

Event Time Altitude Azimuth Distance (km) Brightness Sun altitude
Rises 13:54:59 0° 288° (WNW) 4,706 10.3 10.8°
Reaches altitude 10° 13:58:22 10° 280° (W) 3,700 9.9 10.5°
Maximum altitude 14:06:25 35° 219° (SW) 2,257 9.8 9.7°
Drops below altitude 10° 14:14:22 10° 158° (SSE) 3,644 10.0 8.9°
Sets 14:17:42 0° 150° (SSE) 4,626 10.3 8.6°
